Probability
0 0 0 0 0 0 0 0 0 0 0 0 0 0 0 0 0 0 0 0 0 0 0 0 0 0 0 0 0 0 0 0 0 0 0 0 0 0 0 0 0 0 0
0 0 0 0 0 0 0 0 0 0 0 0 0 0 0 0 0 0 0 0 0 0 0 0 0 0 0 0 0 0 0 0 0 0 0 0 0 0 0 0 0 0 0
0 0 0 0 0 0 0 0 0 0 0 0 0 0 0 0 0 0 0 0 0 0 0 0 0 0 0 0 0 0 0 0 0 0 0 0 0 0 0 0 0 0 0
0 0 0 0 0 0 0 0 0 0 0 0 0 0 0 0 0 0 0 0 0 0 0 0 0 0 0 0 0 0 0 0 0 0 0 0 0 0 0 0 0 0 0
0 0 0 0 0 0 0 0 0 0 0 0 0 0 0 0 0 0 0 0 0 0 0 0 0 0 0 0 0 0 0 0 0 0 0 0 0 0 0 0 0 0 0
0 0 0 0 0 0 0 0 0 0 0 0 0 0 0 0 0 0 0 0 0 0 0 0 0 0 0 0 0 0 0 0 0 0 0 0 0 0 0 0 0 0 0
0 0 0 0 0 0 0 0 0 0 0 0 0 0 0 0 0 0 0 0 0 0 0 0 0 0 0 0 0 0 0 0 0 0 0 0 0 0 0 0 0 0 0
0 0 0 0 0 0 0 0 0 0 0 0 0 0 0 0 0 0 0 0 0 0 0 0 0 0 0 0 0 0 0 0 0 0 0 0 0 0 0 0 0 0 0
0 0 0 0 0 0 0 0 0 0 0 0 0 0 0 0 0 0 0 0 0 0 0 0 0 0 0 0 0 0 0 0 0 0 0 0 0 0 0 0 0 0 0
0 0 0 0 0 0 0 0 0 0 0 0 0 0 0 0 0 0 0 0 0 0 0 0 0 0 0 0 0 0 0 0 0 0 0 0 0 0 0 0 0 0 0
0 0 0 0 0 0 0 0 0 0 0 0 0 0 0 0 0 0 0 0 0 0 0 0 0 0 0 0 0 0 0 0 0 0 0 0 0 0 0 0 0 0 0
0 0 0 0 0 0 0 0 0 0 0 0 0 0 0 0 0 0 0 0 0 0 0 0 0 0 0 0 0 0 0 0 0 0 0 0 0 0 0 0 0 0 0
0 0 0 0 0 0 0 0 0 0 0 0 0 0 0 0 0 0 0 0 0 0 0 0 0 0 0 0 0 0 0 0 0 0 0 0 0 0 0 0 0 0 0
0 0 0 0 0 0 0 0 0 0 0 0 0 0 0 0 0 0 0 0 0 0 0 0 0 0 0 0 0 0 0 0 0 0 0 0 0 0 0 0 0 0 0
0 0 0 0 0 0 0 0 0 0 0 0 0 0 0 0 0 0 0 0 0 0 0 0 0 0 0 0 0 0 0 0 0 0 0 0 0 0 0 0 0 0 0
0 0 0 0 0 0 0 0 0 0 0 0 0 0 0 0 0 0 0 0 0 0 0 0 0 0 0 0 0 0 0 0 0 0 0 0 0 0 0 0 0 0 0
0 0 0 0 0 0 0 0 0 0 0 0 0 0 0 0 0 0 0 0 0 0 0 0 0 0 0 0 0 0 0 0 0 0 0 0 0 0 0 0 0 0 0
0 0 0 0 0 0 0 0 0 0 0 0 0 0 0 0 0 0 0 0 0 0 0 0 0 0 0 0 0 0 0 0 0 0 0 0 0 0 0 0 0 0 0
0 0 0 0 0 0 0 0 0 0 0 0 0 0 0 0 0 0 0 0 0 0 0 0 0 0 0 0 0 0 0 0 0 0 0 0 0 0 0 0 0 0 0
0 0 0 0 0 0 0 0 0 0 0 0 0 0 0 0 0 0 0 0 0 0 0 0 0 0 0 0 0 0 0 0 0 0 0 0 0 0 0 0 0 0 0
0 0 0 0 0 0 0 0 0 0 0 0 0 0 0 0 0 0 0 0 0 0 0 0 0 0 0 0 0 0 0 0 0 0 0 0 0 0 0 0 0 0 0
0 0 0 0 0 0 0 0 0 0 0 0 0 0 0 0 0 0 0 0 0 0 0 0 0 0 0 0 0 0 0 0 0 0 0 0 0 0 0 0 0 0 0
0 0 0 0 0 0 0 0 0 0 0 0 0 0 0 0 0 0 0 0 0 0 0 0 0 0 0 0 0 0 0 0 0 0 0 0 0 0 0 0 0 0 0
0 0 0 0 0 0 0 0 0 0 0 0 0 0 0 0 0 0 0 0 0 0 0 0 0 0 0 0 0 0 0 0 0 0 0 0 0 0 0 0 0 0 0
0 0 0 0 0 0 0 0 0 0 0 0 0 0 0 0 0 0 0 0 0 0 0 0 0 0 0 0 0 0 0 0 0 0 0 0 0 0 0 0 0 0 0
0 0 0 0 0 0 0 0 0 0 0 0 0 0 0 0 0 0 0 0 0 0 0 0 0 0 0 0 0 0 0 0 0 0 0 0 0 0 0 0 0 0 0
Wind_Speed
10 9 10 9 10 11 12 14 15 14 12 10 9 8 7 6 5 4 5 5 5 5 4 3 3 2 2 1 1 2 3 3 4 5 5 4 3 3 2 2 3 3 3
10 10 10 10 11 11 13 14 14 15 14 10 9 7 7 5 4 4 5 5 5 5 4 4 3 3 2 2 1 1 2 2 3 4 5 4 2 1 2 4 5 6 4
11 11 12 11 11 11 12 11 14 14 14 12 8 7 5 4 5 6 5 5 5 5 5 4 4 3 2 2 1 1 2 2 2 2 3 4 4 6 4 4 5 6 6
9 10 11 12 11 10 10 11 13 14 14 13 12 13 9 8 8 6 6 6 6 6 5 5 4 4 2 2 2 1 1 2 3 2 2 4 4 5 6 4 5 6 8
7 9 10 10 10 10 9 10 12 13 13 13 13 13 10 8 6 7 8 7 6 6 6 5 5 4 3 2 2 2 2 2 3 3 3 4 4 6 6 8 8 7 7
5 7 8 9 9 9 9 10 12 12 12 13 13 12 12 10 10 10 9 7 5 5 6 5 4 4 3 3 3 2 3 3 4 4 4 4 4 5 6 9 11 10 8
5 8 10 11 10 11 11 11 12 12 12 12 12 12 11 12 12 11 9 8 6 5 7 6 5 4 3 3 3 3 4 4 5 5 4 5 6 6 7 9 11 12 11
5 7 9 10 10 11 11 11 12 12 12 12 11 10 10 8 8 9 8 8 6 6 7 6 5 5 4 4 3 3 4 4 5 6 6 6 6 6 7 8 9 11 11
5 7 9 10 10 11 11 12 12 12 12 11 11 10 10 9 8 9 8 6 5 5 7 6 6 5 4 4 4 4 5 5 6 6 7 7 6 6 7 7 8 9 12
5 7 8 10 9 10 10 11 11 11 11 11 10 8 10 9 9 8 8 7 7 7 7 6 6 5 5 5 5 5 5 6 6 6 8 8 7 7 7 8 8 9 11
4 7 8 9 9 9 10 11 11 11 11 11 10 10 9 9 9 8 8 8 7 7 7 6 6 6 5 5 6 6 7 8 8 8 9 10 10 8 8 8 9 9 10
3 6 8 9 10 11 11 12 11 11 11 11 10 10 10 9 9 9 8 8 8 7 6 6 6 6 6 6 7 7 8 9 10 10 10 11 9 11 10 9 11 10 11
4 6 7 9 10 11 11 12 12 12 11 11 11 11 11 10 10 9 9 8 7 7 6 6 6 6 6 7 7 8 9 9 10 10 11 12 12 13 11 12 11 10 11
5 6 7 8 9 10 11 11 12 11 11 11 11 12 11 11 10 9 8 8 7 7 7 6 6 6 6 6 7 8 9 10 11 11 12 12 12 13 13 12 13 12 12
5 6 7 7 8 9 10 10 11 11 11 12 12 11 10 9 9 8 8 7 7 7 6 6 6 7 6 6 7 7 9 10 12 12 12 13 14 17 15 12 12 12 11
6 6 6 7 8 9 9 10 10 11 11 12 11 10 9 9 9 8 8 7 7 6 6 7 7 7 6 8 12 11 11 11 12 13 13 13 14 16 19 21 21 19 15
5 5 6 6 6 7 8 9 9 10 10 10 10 10 10 9 9 8 7 7 7 7 7 7 8 9 9 10 13 14 12 13 13 13 13 11 11 15 13 16 19 19 22
5 5 4 5 5 5 6 7 8 9 9 9 9 9 9 9 8 8 7 7 6 6 7 7 8 9 9 11 13 14 13 13 13 13 14 14 14 12 13 13 14 15 16
4 3 4 4 5 6 7 8 8 8 8 8 9 9 9 8 8 7 7 6 6 6 7 7 8 9 10 11 13 14 11 11 13 13 13 14 14 17 19 16 16 16 15
4 5 5 6 6 6 7 8 8 8 8 7 7 7 7 7 7 7 6 5 5 6 6 7 8 10 11 11 13 14 9 11 11 11 12 15 16 18 20 16 15 15 14
6 6 6 6 6 6 7 7 7 6 6 6 6 6 6 6 5 5 4 4 5 6 7 8 9 10 11 12 14 15 10 10 11 10 10 10 16 19 21 20 15 17 17
7 7 6 6 6 6 7 7 6 6 6 6 6 5 5 4 3 4 4 5 5 7 8 9 9 8 9 10 12 15 15 15 13 12 11 11 18 21 22 18 18 22 19
7 6 7 7 6 5 5 6 6 6 6 6 5 4 3 3 3 4 5 5 5 6 7 7 8 9 8 9 14 16 17 18 14 12 17 21 23 22 17 17 20 16 10
7 6 7 7 6 5 5 5 6 6 5 5 4 3 2 3 3 3 4 5 6 6 7 8 9 9 9 8 7 8 10 13 13 12 15 20 20 16 16 15 11 8 8
6 6 6 7 7 6 5 5 5 5 4 3 2 2 2 3 4 5 5 7 7 7 8 9 9 10 10 11 15 14 11 10 11 13 10 10 9 8 8 8 8 7 7
7 7 6 7 7 6 6 5 4 4 3 2 2 2 2 3 4 5 6 9 11 14 16 17 16 13 17 20 21 22 22 22 22 16 10 10 9 9 9 9 8 8 7
Wind_Direction
228 204 198 194 193 192 192 189 185 183 180 180 180 180 182 179 177 176 181 181 181 177 179 182 180 191 215 243 282 302 302 318 329 308 309 297 275 287 266 267 282 290 298
216 201 196 191 191 188 188 185 184 181 182 182 180 182 170 170 165 160 167 171 172 167 170 180 179 177 185 191 201 274 302 326 336 325 318 316 286 161 266 290 292 298 296
225 204 194 190 189 187 184 182 181 179 181 176 165 149 142 143 162 166 163 165 167 165 168 173 172 168 185 182 184 237 287 306 316 325 319 317 318 322 286 285 293 297 298
228 208 195 188 186 182 178 178 176 177 177 174 175 174 178 180 181 171 162 160 165 164 162 164 165 166 172 172 171 216 268 286 295 292 274 285 300 298 305 289 283 293 296
225 205 194 186 178 170 171 172 172 175 176 180 181 183 186 179 161 159 160 160 158 159 159 163 164 166 171 177 181 207 241 264 283 286 284 276 273 264 277 294 302 297 288
211 196 180 174 167 164 166 169 172 174 176 181 183 186 180 168 162 166 166 165 158 160 164 167 170 174 178 185 201 220 240 257 265 268 267 271 274 280 277 285 297 300 302
196 183 176 176 171 171 170 173 174 174 177 181 184 184 179 174 174 173 175 171 168 171 172 175 180 181 185 194 209 230 247 253 260 265 270 269 269 277 279 283 292 296 299
192 188 185 182 177 176 176 176 178 175 176 180 181 179 174 175 176 176 174 178 176 173 170 178 185 188 193 202 218 239 248 257 259 265 267 267 268 269 268 275 289 295 293
190 190 188 188 184 182 183 182 180 177 177 179 175 174 174 174 169 169 171 171 168 161 172 182 189 194 203 215 229 245 252 258 263 266 267 266 268 267 267 268 270 279 291
191 191 192 192 190 188 185 186 186 182 178 177 174 172 173 171 166 167 169 169 167 168 177 187 196 203 212 223 235 251 258 262 264 265 268 270 270 270 267 264 266 266 273
197 194 193 192 190 187 187 187 188 184 180 179 175 173 170 168 169 171 171 171 171 177 186 193 203 213 223 233 242 251 258 263 268 266 267 270 273 273 271 268 267 266 269
208 198 193 190 190 192 191 190 190 189 186 181 178 176 170 170 174 174 173 174 179 184 192 199 210 220 231 241 251 258 260 265 269 272 272 273 274 272 272 271 270 271 273
213 199 195 196 197 196 195 194 193 191 185 181 180 177 176 178 180 177 175 178 183 188 195 206 218 226 234 244 254 261 266 268 271 273 273 274 275 275 275 275 275 276 277
220 210 205 203 201 200 198 196 195 191 184 183 185 185 184 184 182 177 178 182 187 194 203 214 224 231 235 245 255 262 266 269 270 270 270 271 271 273 277 279 279 279 279
228 216 212 205 200 199 199 197 194 189 185 186 189 189 185 180 177 178 181 183 191 202 209 220 230 237 235 235 241 251 256 263 269 270 268 268 268 271 273 274 276 277 276
232 219 210 205 202 198 197 194 193 188 186 189 190 183 178 176 178 181 181 186 197 205 215 226 237 245 247 249 257 267 271 270 270 273 273 273 270 270 272 274 277 279 280
226 215 208 202 200 196 193 191 187 181 185 189 185 179 178 177 179 179 185 194 204 213 224 235 244 254 258 258 267 271 278 278 277 277 278 277 275 277 277 280 282 280 278
211 201 191 183 178 175 176 173 170 174 180 183 181 178 177 178 177 183 194 204 213 223 235 244 252 261 265 266 272 279 278 277 276 277 278 280 281 281 282 281 279 277 276
188 168 159 154 151 154 156 156 160 167 174 179 179 177 176 175 179 191 203 210 222 234 243 252 258 264 270 268 275 282 283 278 279 279 278 278 280 283 286 285 283 283 281
142 137 134 134 136 139 149 153 157 165 172 174 174 171 174 177 187 199 209 217 230 245 252 256 262 267 273 277 278 281 280 281 282 281 278 276 277 283 288 287 287 286 287
131 133 131 128 129 140 148 151 155 162 159 157 158 162 171 182 192 202 213 226 238 250 258 266 268 269 272 277 275 278 278 280 284 284 283 281 284 287 290 290 287 286 291
137 137 131 124 128 143 150 148 150 144 144 148 153 159 168 169 192 211 228 239 248 260 267 272 276 274 272 269 274 278 279 283 284 284 285 285 289 291 293 293 290 293 296
140 140 135 128 129 142 152 146 139 141 146 150 153 156 167 184 210 231 243 252 255 261 271 275 278 281 280 277 276 281 284 285 283 282 285 289 291 294 293 290 292 295 291
147 145 143 138 136 140 143 134 135 145 151 153 154 163 192 220 234 241 248 253 258 264 270 275 279 283 282 281 282 281 284 284 283 284 286 288 288 287 286 289 290 284 280
148 150 150 143 138 139 134 132 140 148 151 152 162 195 231 248 257 254 253 258 260 262 269 277 279 284 284 284 288 291 291 291 289 294 288 283 283 282 283 285 286 284 282
148 148 146 142 140 141 135 133 139 151 155 173 208 238 254 261 266 273 273 250 253 267 266 269 274 278 279 288 292 293 294 297 296 295 287 287 287 288 291 292 291 288 284